Vorticity
nan nan nan nan nan nan nan nan nan nan nan nan nan nan nan nan nan nan nan nan nan nan nan nan nan nan nan nan nan nan nan nan nan nan nan nan nan nan
nan 9 9 9 10 11 11 11 9 8 7 6 8 8 7 7 8 8 8 9 10 8 10 10 10 9 7 7 7 7 7 7 7 8 9 8 7 nan
nan 9 8 10 9 9 10 9 10 9 7 6 7 8 9 8 9 9 10 10 12 11 8 9 10 10 9 8 8 7 7 7 8 8 8 8 7 nan
nan 9 9 10 8 9 9 9 10 10 9 8 9 11 11 10 10 10 11 10 10 11 10 9 10 10 11 10 8 8 7 7 7 8 9 8 7 nan
nan 8 10 8 9 9 9 9 10 11 10 11 10 9 12 12 12 11 10 11 12 12 12 13 12 12 13 11 9 8 7 7 6 7 8 8 8 nan
nan 10 10 9 8 7 10 9 9 9 10 10 10 10 9 12 11 11 12 11 10 13 15 15 14 14 15 13 13 11 8 6 7 7 6 8 9 nan
nan 11 11 11 9 6 5 7 7 8 9 11 10 9 8 11 10 11 12 10 11 12 12 13 14 13 16 16 12 13 10 7 7 5 7 7 6 nan
nan 10 12 13 11 10 7 9 9 8 8 9 8 9 10 10 12 9 9 9 11 12 11 11 12 10 12 14 11 10 11 9 8 9 7 5 7 nan
nan 10 11 12 11 11 11 12 12 13 14 12 11 9 9 10 11 10 11 10 10 8 10 10 11 11 11 13 14 12 12 12 10 9 8 8 8 nan
nan 10 10 9 9 7 10 11 12 12 13 11 9 7 7 8 9 10 10 10 10 10 10 11 11 11 11 14 15 15 15 14 11 11 9 7 7 nan
nan 12 10 10 7 6 10 9 9 11 11 8 9 11 11 12 10 12 9 9 10 13 10 9 9 10 10 11 12 14 18 17 13 12 10 7 7 nan
nan 11 11 9 11 13 10 10 8 10 9 12 13 14 16 15 15 11 10 9 8 10 13 10 9 9 9 10 10 13 14 19 20 14 11 7 3 nan
nan 11 11 7 10 12 12 12 8 7 10 11 12 11 11 11 15 13 12 10 9 9 11 10 9 10 10 10 10 11 12 14 16 17 16 13 8 nan
nan 9 4 6 9 12 13 9 8 12 14 13 11 10 10 10 11 11 12 12 10 10 10 10 9 11 10 9 10 11 11 10 11 12 12 14 18 nan
nan 6 5 9 12 14 13 15 19 16 11 10 9 11 11 11 11 12 11 11 13 12 12 10 9 10 9 9 10 10 11 11 11 11 11 12 12 nan
nan 12 14 12 13 13 15 18 17 12 11 11 11 11 11 12 12 11 10 11 10 12 14 12 10 9 9 12 9 9 9 9 10 11 10 11 11 nan
nan 11 12 14 14 13 12 12 13 9 11 12 12 10 10 11 12 11 10 10 9 10 10 12 14 12 11 10 9 10 10 9 10 10 9 9 10 nan
nan 11 10 11 10 10 11 11 12 12 11 10 9 9 10 11 11 12 11 9 10 10 10 11 10 9 12 14 12 5 10 11 13 9 8 9 11 nan
nan 11 10 10 11 11 11 10 10 12 12 11 8 10 10 8 10 13 12 10 10 10 11 11 10 9 9 9 21 15 4 12 11 12 12 11 10 nan
nan 11 11 11 12 12 10 10 10 11 12 10 11 11 10 9 11 11 12 10 9 10 11 11 10 8 11 12 10 19 15 6 10 11 12 11 10 nan
nan 12 11 11 11 11 10 10 10 10 11 11 11 11 12 11 9 10 10 13 13 10 10 12 15 12 9 11 9 11 19 13 6 8 9 10 11 nan
nan 11 12 12 11 10 10 10 10 11 12 11 11 12 12 12 11 10 9 13 13 11 11 12 14 16 10 8 9 10 11 17 15 9 6 7 7 nan
nan nan nan nan nan nan nan nan nan nan nan nan nan nan nan nan nan nan nan nan nan nan nan nan nan nan nan nan nan nan nan nan nan nan nan nan nan nan
CAPE
0 0 0 0 0 0 1 6 12 4 1 0 0 0 0 0 0 0 0 0 0 0 0 0 0 0 0 0 0 0 0 0 1 1 1 4 8 17
0 0 0 0 0 0 0 0 5 8 11 0 2 0 0 0 0 0 0 0 0 0 0 0 0 0 0 0 0 0 0 0 0 0 0 2 4 6
0 0 0 0 0 0 0 0 0 4 6 2 1 5 3 0 0 0 0 0 0 0 0 0 0 0 0 0 0 0 0 0 0 0 0 1 1 0
0 0 0 0 0 0 0 0 0 0 2 6 0 8 7 4 1 0 0 0 0 0 0 0 0 0 0 0 0 0 0 0 0 0 0 0 0 0
0 0 0 0 0 0 0 0 0 0 0 3 3 2 5 3 4 0 0 0 0 0 0 0 0 0 0 0 0 0 0 0 0 0 0 0 0 0
0 0 0 0 0 0 0 0 0 0 0 4 2 1 4 1 3 2 0 0 0 0 0 0 0 0 0 0 0 0 0 0 0 0 0 0 0 0
0 0 0 0 0 0 0 0 1 3 1 0 5 1 1 1 3 1 0 0 0 0 0 0 0 0 0 0 0 0 0 0 0 0 0 0 0 0
0 0 0 0 0 0 0 0 0 4 1 2 3 5 8 2 0 0 0 0 0 0 0 0 0 0 0 0 0 0 0 0 0 0 0 0 0 0
0 0 0 0 0 0 0 0 0 0 4 4 8 8 10 5 1 0 0 0 0 0 0 0 0 0 0 0 0 0 0 0 0 0 2 0 0 0
0 0 0 0 0 0 0 1 1 0 0 0 0 0 0 0 1 0 0 0 0 0 0 0 0 0 0 0 0 0 0 0 0 0 0 0 0 0
0 0 0 0 0 2 14 7 0 0 0 3 3 4 3 4 4 0 0 0 0 0 0 0 0 0 0 0 0 0 0 0 0 0 0 3 2 0
0 0 0 7 24 47 77 36 1 0 0 0 0 0 0 0 0 0 0 0 0 0 0 0 0 0 0 0 0 0 0 0 0 1 1 7 2 4
0 0 0 0 12 32 40 105 40 7 7 5 3 2 1 0 0 0 0 0 0 0 0 0 0 0 0 0 0 0 0 0 0 7 2 11 5 5
0 0 0 0 7 25 47 69 123 85 3 4 0 0 1 1 0 0 0 0 0 0 0 0 0 0 0 0 0 0 0 0 0 0 0 0 2 6
0 0 9 8 11 11 8 44 98 53 21 0 0 1 1 3 0 0 0 0 0 0 0 0 0 0 0 1 0 0 0 0 0 0 0 0 0 0
0 0 0 19 20 20 14 0 6 2 6 10 5 3 2 0 0 0 0 0 0 1 0 0 0 0 0 0 0 0 0 0 0 0 0 0 0 0
29 18 0 0 0 0 0 0 1 0 2 1 0 0 4 4 0 0 0 0 1 2 1 0 0 0 0 0 1 1 0 1 0 0 0 0 0 0
44 20 3 0 0 0 0 0 0 5 9 6 3 8 25 14 12 0 0 0 2 3 3 0 1 1 1 0 2 3 1 2 2 2 1 1 0 0
19 8 1 0 0 0 0 0 2 2 2 20 24 23 23 32 10 3 2 2 2 3 3 1 2 3 1 2 0 1 2 1 1 1 1 1 0 0
0 1 2 0 0 0 0 1 1 6 5 18 18 19 18 28 31 7 2 10 3 3 4 0 1 3 3 2 0 0 0 1 1 1 1 0 0 0
2 4 2 0 6 8 8 4 2 6 1 0 4 7 16 25 32 33 23 20 24 5 7 8 0 2 2 1 1 1 0 1 0 1 2 3 3 1
0 0 1 13 29 25 18 0 1 1 1 3 3 16 20 27 28 22 24 33 20 15 7 5 0 0 2 2 2 0 1 0 5 1 0 0 1 0
0 1 5 19 19 4 1 13 12 8 6 13 9 17 28 28 34 30 36 26 27 17 4 5 0 2 2 4 3 1 0 0 1 4 5 2 1 0